User: anonymous   Login
Location: Unspecified
(0.0000°N, 0.0000°E)
Time: 12:37:19
(UTC+00:00)
Language:

Orbcomm F1 (FM01) - Orbit

View from above orbital plane
View from above orbital plane
View from above satellite
View from above satellite

Ground track
Ground track

The orbit data is extracted from the following two-line orbital elements,

1 23545U 95017A   18171.96035490 +.00000255 +00000-0 +53269-4 0  9996
2 23545 069.9682 168.3189 0004754 172.1548 187.9672 14.71085645236085
Epoch (UTC): 20 June 2018 23:02:54
Eccentricity: 0.0004754
inclination: 69.9682°
perigee height: 654 km
apogee height: 661 km
right ascension of ascending node: 168.3189°
argument of perigee: 172.1548°
revolutions per day: 14.71085645
mean anomaly at epoch: 187.9672°
orbit number at epoch: 23608

The dashed part of the orbit path shows where the satellite is in the earth's shadow,  

DLR